Wind_Speed
27 27 28 28 28 28 28 29 29 29 30 30 30 31 31 31 31 32 31 31 31 31 32 33 33 33 34 35 35 35 35 35 35 35 35 36 37 37 37 37 37 36 37
27 28 28 29 28 28 28 28 29 29 29 29 30 31 31 30 30 31 31 31 30 30 31 32 32 32 33 34 34 34 34 35 35 35 34 33 33 34 34 33 33 34 34
28 28 28 28 28 28 27 27 27 28 28 28 28 28 28 28 28 28 29 29 29 29 29 29 30 29 30 31 31 31 32 32 33 33 32 32 32 32 31 31 31 31 31
28 28 27 27 27 27 26 26 25 25 25 25 24 24 24 24 25 25 26 26 27 27 27 26 26 27 27 27 28 28 29 29 29 30 30 30 29 29 28 28 28 28 29
28 27 26 25 24 24 23 22 22 22 22 22 22 22 23 23 23 23 23 23 23 24 24 24 24 25 26 25 26 25 25 26 26 26 27 27 27 26 26 26 26 27 27
26 24 23 22 22 21 21 21 21 21 20 20 20 20 21 21 21 22 21 21 21 21 21 22 22 22 22 23 23 22 22 22 22 23 23 23 23 24 24 24 24 24 24
23 22 21 20 20 19 19 18 18 18 18 19 19 19 19 19 19 19 19 19 19 19 19 19 20 21 21 20 19 20 20 20 20 20 20 20 20 20 21 21 21 22 22
20 19 19 18 18 17 17 17 17 17 17 17 17 17 17 17 17 17 18 18 18 17 18 17 17 17 17 17 17 17 17 17 17 17 17 17 17 17 17 17 18 19 19
18 18 17 17 16 15 14 15 14 15 15 15 16 15 15 15 15 15 15 15 15 14 14 13 13 13 13 13 13 12 12 12 13 14 14 14 14 14 15 15 15 16 16
16 15 15 15 15 13 12 12 12 13 14 14 13 13 13 12 12 12 11 11 10 10 9 10 10 9 8 9 9 8 8 8 9 10 11 11 12 13 13 14 14 14 14
14 13 13 13 12 10 10 10 10 10 11 10 10 9 9 9 9 8 7 6 6 5 5 5 5 4 4 5 5 5 6 7 7 8 8 9 11 11 12 12 12 12 12
12 11 11 10 9 9 8 8 8 8 8 7 7 6 6 5 5 4 3 2 1 2 1 2 3 3 3 3 4 4 4 5 6 7 7 7 8 9 10 10 10 10 10
9 9 8 6 6 6 5 4 4 4 4 5 5 5 5 4 4 3 2 1 1 1 0 0 2 1 1 1 1 3 4 4 5 5 5 6 6 7 8 7 7 7 6
7 6 6 6 5 4 4 3 3 3 3 4 5 5 5 5 4 4 3 3 3 3 2 2 3 2 1 2 1 2 2 3 4 4 5 5 5 5 4 4 5 5 6
7 6 6 6 6 6 6 5 5 5 5 5 6 6 6 6 6 6 6 5 4 4 4 5 4 4 4 4 5 4 4 4 4 4 5 5 5 5 4 4 5 5 5
7 7 7 8 8 8 8 9 9 9 9 9 9 9 9 8 8 8 8 8 7 7 7 7 7 7 7 7 7 6 6 6 6 6 6 6 5 5 5 6 6 5 5
9 8 9 9 10 10 11 11 12 12 12 12 12 11 11 11 11 11 11 10 10 10 10 9 9 9 8 8 8 7 7 7 7 7 7 7 6 7 7 6 6 6 5
10 11 11 11 12 12 12 13 13 13 14 14 14 14 14 13 13 12 13 13 13 12 12 11 11 10 9 9 8 8 8 8 8 7 7 7 7 7 7 7 7 7 7
12 12 12 13 13 13 13 14 14 14 15 16 16 16 16 15 15 14 14 15 14 13 13 13 13 12 11 10 9 9 9 8 8 8 8 8 8 8 8 8 8 8 8
12 13 13 14 14 14 14 15 15 15 16 16 16 16 16 16 16 16 16 15 15 14 14 14 13 13 12 11 11 10 9 9 9 9 8 8 8 8 9 9 9 9 10
13 13 14 14 14 15 15 15 16 16 16 17 17 17 17 17 16 16 16 16 15 15 14 13 13 13 12 12 11 11 10 10 10 9 9 9 9 9 9 10 10 11 12
13 13 14 14 15 15 16 16 16 16 16 16 16 17 17 17 16 16 16 16 15 14 14 13 12 12 12 12 11 11 11 11 10 10 10 10 10 10 11 11 12 13 14
13 14 14 15 15 15 15 15 16 16 16 16 16 16 16 15 15 15 15 15 14 14 13 13 12 12 12 12 12 11 11 11 11 11 11 11 11 12 12 13 14 15 16
12 13 14 14 15 15 15 15 15 15 15 15 15 15 15 15 15 15 14 14 14 14 14 13 13 13 12 12 12 12 12 12 12 12 12 12 13 14 15 15 16 17 18
12 12 13 13 13 13 13 14 14 14 14 14 14 14 15 15 14 14 14 14 13 13 13 13 13 13 13 13 13 13 13 13 13 14 14 15 15 16 17 18 19 19 20
11 11 11 12 12 12 12 12 12 12 12 12 13 13 13 13 14 13 13 13 13 13 12 12 12 13 13 14 14 14 14 15 15 16 17 17 18 19 20 20 21 21 22
Wind_Direction
294 291 288 287 286 286 286 284 283 281 280 280 280 280 280 278 276 275 275 273 270 269 267 266 266 265 265 265 265 266 266 266 267 268 269 270 270 269 268 271 274 274 276
295 293 291 289 287 286 285 284 283 282 282 281 281 281 280 278 277 275 274 273 273 271 269 267 267 267 266 266 266 267 267 267 267 269 270 271 270 270 270 270 271 275 275
295 293 291 289 288 287 286 286 284 283 283 283 283 282 281 280 279 277 276 275 273 272 271 269 268 268 266 265 266 267 267 268 267 269 270 271 270 271 270 269 271 273 274
295 293 290 289 287 287 286 285 285 285 284 285 284 283 284 283 281 279 278 276 274 272 271 269 268 266 266 265 265 266 267 268 269 270 271 273 273 273 272 273 275 274 274
295 294 292 289 288 287 287 286 286 287 286 285 285 286 286 285 284 281 279 278 275 272 269 268 267 266 267 266 267 267 268 269 270 271 272 273 272 272 274 276 277 276 277
297 294 292 291 290 289 288 287 286 286 286 286 286 286 286 285 283 281 280 279 279 275 272 271 270 268 268 270 270 270 270 271 272 272 273 273 272 272 273 274 275 277 280
297 294 292 291 292 290 290 289 287 287 287 288 286 285 285 285 283 282 281 281 278 274 272 270 269 268 268 271 273 274 273 272 273 274 273 274 273 272 272 273 275 277 278
296 294 293 292 292 291 290 290 291 289 288 289 289 288 287 286 286 284 283 280 276 273 271 269 268 266 265 267 270 271 270 270 272 271 271 272 271 273 275 276 276 277 278
297 295 294 293 293 291 292 293 294 293 292 293 292 290 289 289 287 287 288 283 276 273 271 266 263 263 264 263 264 264 266 266 265 268 271 273 273 274 276 276 275 275 278
301 298 297 296 297 296 295 297 298 298 297 297 296 294 294 294 293 290 287 283 276 270 264 260 260 259 260 259 261 264 266 271 271 269 274 275 277 278 278 276 274 275 279
308 309 308 304 300 298 297 300 301 302 304 305 306 306 305 305 303 297 288 280 268 262 259 254 248 246 252 258 265 270 277 282 284 285 286 282 281 282 284 284 283 282 281
317 317 315 311 304 302 302 303 305 309 318 321 323 322 323 324 324 316 304 296 249 242 254 250 233 225 237 254 272 282 296 301 300 298 301 300 297 296 296 291 286 284 283
327 328 331 331 324 324 325 324 326 330 336 343 351 354 358 0 2 4 11 45 78 95 106 140 180 175 187 267 284 304 308 314 319 318 315 311 309 308 304 297 296 300 300
352 360 5 7 12 21 22 23 27 22 12 10 15 20 22 23 26 46 68 75 77 83 89 104 103 89 76 57 43 14 5 -0 353 344 336 334 333 329 326 324 322 315 314
14 22 31 40 47 49 49 48 48 49 40 38 37 42 46 50 58 65 69 72 78 77 80 90 86 80 75 72 65 59 48 40 38 30 21 15 13 9 2 353 343 333 329
36 45 53 56 60 60 59 61 62 64 62 59 60 63 63 63 63 67 69 72 76 80 77 81 83 82 76 75 72 69 63 57 50 43 39 34 29 23 14 7 359 351 346
52 61 65 66 64 64 69 70 69 68 67 67 67 69 68 70 71 73 73 73 75 80 80 80 80 78 77 75 71 66 61 56 50 43 38 33 28 24 19 14 9 4 359
64 70 70 69 69 71 73 74 73 72 71 71 70 70 70 72 73 75 76 77 76 78 79 79 79 78 75 71 66 61 57 53 47 42 38 33 29 25 21 17 13 11 5
72 74 73 72 75 77 78 77 77 76 74 73 73 73 73 73 75 76 75 76 77 76 76 76 75 73 69 65 62 58 54 50 44 40 35 30 23 18 14 12 8 3 357
75 76 75 77 80 80 80 79 78 77 77 76 76 75 74 74 73 74 74 75 74 72 71 70 68 66 63 60 56 51 48 45 41 36 32 25 18 12 7 4 1 356 351
76 78 79 81 82 82 81 79 79 78 77 77 76 75 74 73 73 73 71 70 68 67 65 63 60 58 55 52 49 46 43 40 36 30 24 17 10 5 1 357 352 348 344
79 80 82 82 81 81 81 82 82 80 78 77 74 73 73 71 69 67 65 63 61 60 58 56 53 49 46 44 42 38 34 29 23 18 13 8 3 359 355 351 347 342 339
83 85 85 84 83 82 81 81 81 79 77 75 73 71 68 66 64 62 60 58 56 54 51 49 46 44 41 38 35 31 27 22 18 15 10 4 358 353 347 342 338 335 333
83 86 87 87 86 84 82 81 80 78 75 72 69 67 65 63 61 59 57 55 53 52 50 48 45 42 37 32 28 24 19 14 9 4 360 355 350 345 341 337 334 331 329
85 86 87 87 86 85 83 81 79 75 73 70 68 66 64 62 59 57 55 53 51 49 47 43 39 36 31 27 23 18 13 7 2 358 354 350 346 342 339 336 334 331 330
86 86 86 86 85 83 81 79 77 73 69 67 65 63 60 58 56 53 51 48 46 43 39 34 29 25 20 16 12 8 4 360 356 352 348 345 343 340 338 335 333 331 329
Height
5770 5769 5767 5765 5764 5763 5761 5760 5759 5758 5757 5757 5756 5756 5755 5755 5755 5755 5755 5755 5756 5756 5757 5758 5759 5760 5761 5762 5763 5764 5765 5766 5767 5767 5768 5769 5770 5770 5771 5771 5772 5772 5772
5764 5762 5760 5758 5756 5755 5754 5752 5751 5750 5749 5748 5748 5747 5747 5746 5746 5746 5746 5747 5747 5748 5748 5749 5751 5751 5753 5754 5755 5756 5757 5758 5759 5759 5760 5760 5761 5761 5762 5762 5763 5763 5764
5757 5755 5752 5750 5749 5747 5746 5744 5743 5742 5741 5740 5740 5739 5739 5738 5738 5738 5738 5738 5738 5739 5740 5741 5742 5743 5744 5746 5747 5747 5748 5749 5750 5751 5751 5752 5753 5753 5754 5754 5754 5755 5755
5750 5747 5745 5743 5741 5740 5739 5737 5736 5735 5734 5733 5733 5732 5732 5731 5731 5730 5730 5730 5731 5731 5732 5733 5734 5735 5736 5738 5739 5740 5741 5741 5742 5742 5743 5744 5745 5745 5746 5746 5746 5747 5747
5742 5740 5738 5736 5734 5733 5732 5731 5730 5729 5728 5727 5727 5726 5725 5725 5724 5724 5723 5723 5723 5724 5725 5726 5727 5728 5728 5730 5731 5732 5733 5734 5734 5735 5735 5736 5737 5738 5738 5738 5739 5739 5739
5735 5733 5731 5730 5728 5727 5726 5725 5724 5723 5722 5722 5721 5720 5719 5719 5718 5717 5717 5717 5717 5718 5718 5719 5720 5721 5722 5723 5724 5725 5726 5727 5727 5728 5729 5729 5730 5731 5731 5732 5732 5732 5732
5729 5727 5726 5724 5723 5722 5721 5720 5719 5718 5717 5716 5715 5715 5714 5713 5712 5712 5712 5711 5712 5712 5713 5713 5714 5715 5716 5717 5718 5719 5720 5721 5722 5723 5723 5724 5724 5725 5725 5725 5725 5726 5726
5724 5722 5720 5719 5718 5717 5716 5715 5714 5713 5712 5711 5710 5709 5709 5708 5708 5707 5707 5707 5707 5707 5708 5709 5710 5710 5711 5712 5714 5714 5715 5716 5716 5717 5718 5718 5719 5719 5719 5719 5719 5720 5720
5719 5717 5716 5715 5713 5712 5712 5711 5710 5709 5708 5707 5706 5705 5704 5704 5703 5703 5702 5702 5702 5703 5704 5705 5706 5706 5707 5708 5709 5710 5711 5711 5712 5713 5713 5713 5714 5714 5714 5714 5715 5715 5715
5715 5713 5712 5711 5710 5709 5708 5707 5706 5705 5704 5704 5702 5702 5701 5700 5700 5699 5699 5699 5699 5700 5700 5701 5702 5703 5704 5705 5706 5707 5708 5708 5709 5709 5709 5710 5710 5710 5710 5710 5710 5710 5710
5712 5711 5709 5708 5707 5706 5706 5705 5704 5703 5702 5701 5700 5699 5699 5698 5697 5697 5697 5697 5697 5697 5698 5699 5700 5701 5702 5703 5704 5705 5706 5706 5706 5706 5707 5707 5707 5707 5707 5707 5707 5707 5706
5710 5708 5707 5706 5705 5704 5704 5703 5702 5701 5700 5699 5699 5698 5697 5697 5696 5696 5695 5696 5696 5696 5697 5698 5699 5700 5701 5702 5703 5703 5704 5704 5704 5704 5704 5704 5704 5704 5704 5704 5703 5703 5703
5709 5707 5706 5705 5704 5703 5703 5702 5701 5701 5700 5699 5698 5698 5697 5696 5696 5695 5695 5695 5696 5696 5697 5697 5698 5699 5700 5701 5702 5702 5702 5703 5703 5703 5703 5703 5702 5702 5702 5701 5701 5701 5701
5709 5707 5706 5705 5704 5703 5703 5702 5701 5701 5700 5700 5699 5698 5698 5697 5696 5696 5696 5696 5696 5697 5697 5698 5698 5699 5700 5701 5701 5702 5702 5702 5702 5702 5702 5701 5701 5701 5700 5700 5700 5700 5699
5709 5708 5707 5706 5705 5705 5704 5703 5702 5702 5701 5701 5700 5699 5699 5698 5698 5698 5698 5698 5698 5698 5699 5699 5700 5700 5701 5701 5702 5702 5702 5702 5702 5702 5702 5701 5701 5700 5700 5699 5699 5699 5698
5711 5710 5709 5708 5708 5707 5706 5705 5704 5704 5703 5702 5702 5701 5701 5700 5700 5700 5700 5700 5700 5700 5700 5701 5701 5702 5702 5703 5703 5703 5703 5703 5703 5703 5702 5702 5701 5700 5700 5699 5698 5698 5697
5713 5712 5712 5711 5710 5709 5709 5708 5707 5707 5706 5705 5705 5704 5704 5703 5703 5703 5703 5703 5703 5703 5703 5703 5704 5704 5705 5705 5705 5705 5705 5705 5704 5704 5703 5702 5702 5701 5700 5700 5699 5698 5697
5716 5716 5715 5714 5713 5713 5712 5712 5711 5711 5710 5709 5709 5708 5707 5707 5707 5706 5706 5706 5706 5706 5707 5707 5707 5707 5707 5707 5707 5707 5707 5706 5706 5705 5704 5704 5703 5702 5701 5700 5699 5698 5697
5720 5719 5719 5718 5717 5717 5716 5716 5716 5715 5715 5714 5713 5713 5712 5712 5711 5711 5711 5711 5711 5711 5710 5710 5710 5710 5710 5710 5709 5709 5708 5708 5707 5707 5706 5705 5704 5703 5702 5701 5699 5698 5697
5724 5723 5723 5722 5722 5721 5721 5720 5720 5720 5719 5719 5718 5718 5717 5717 5716 5716 5715 5715 5715 5715 5714 5714 5714 5713 5713 5712 5712 5711 5710 5710 5709 5708 5706 5705 5704 5703 5702 5701 5699 5698 5697
5728 5728 5727 5727 5726 5726 5725 5725 5725 5724 5724 5724 5723 5722 5722 5722 5722 5721 5720 5719 5719 5719 5718 5718 5717 5717 5716 5715 5714 5713 5712 5711 5710 5709 5708 5706 5705 5704 5702 5701 5699 5697 5696
5733 5732 5732 5731 5731 5731 5730 5730 5730 5729 5729 5728 5728 5727 5727 5726 5726 5725 5724 5724 5723 5722 5722 5721 5720 5719 5719 5717 5716 5715 5714 5713 5711 5710 5708 5707 5705 5704 5702 5700 5698 5696 5694
5737 5736 5736 5736 5735 5735 5735 5735 5734 5734 5734 5733 5733 5732 5731 5731 5730 5729 5728 5728 5727 5726 5725 5724 5723 5722 5721 5720 5718 5717 5715 5714 5712 5711 5709 5707 5705 5703 5701 5699 5697 5695 5692
5741 5741 5740 5740 5740 5740 5740 5739 5739 5739 5738 5738 5737 5736 5736 5735 5734 5733 5732 5731 5730 5729 5728 5727 5726 5725 5723 5722 5720 5718 5717 5715 5713 5711 5709 5707 5705 5703 5700 5698 5695 5692 5689
5745 5745 5745 5744 5744 5744 5744 5744 5743 5743 5742 5742 5741 5740 5739 5738 5738 5737 5736 5735 5734 5732 5731 5730 5728 5727 5725 5723 5721 5719 5717 5715 5713 5711 5709 5706 5704 5701 5698 5696 5692 5689 5686
5749 5749 5748 5748 5748 5748 5748 5747 5747 5747 5746 5745 5745 5744 5743 5742 5741 5740 5739 5738 5736 5735 5733 5732 5730 5728 5726 5724 5722 5720 5718 5715 5713 5711 5708 5705 5702 5699 5696 5693 5690 5686 5683